Wind_Speed
66 68 69 70 69 70 68 68 68 71 72 73 72 72 71 72 73 71 70 69 68 68 66 64 62 62 60 60 55 55 56 53 51 49 45 41 39 33 34 33 23 27 28
71 75 74 73 73 74 75 74 73 74 72 72 73 73 73 72 71 69 68 69 68 66 66 65 65 62 62 58 53 54 52 52 49 44 40 37 33 32 32 30 20 20 25
74 76 76 77 77 78 79 79 78 76 71 70 70 71 72 71 68 69 68 66 65 64 64 61 60 58 56 52 49 47 46 45 44 34 30 29 28 22 25 23 17 15 21
74 80 79 80 80 79 81 83 79 75 74 71 68 68 71 69 67 65 64 62 61 57 58 51 51 51 52 50 46 43 40 40 41 26 16 20 26 28 24 22 14 15 10
78 79 79 78 79 78 82 80 77 74 72 69 69 67 66 65 63 59 58 57 53 53 53 50 45 45 47 49 47 42 37 37 37 23 6 13 33 37 33 24 21 19 10
74 68 73 72 74 76 71 76 73 68 65 63 64 63 62 60 58 56 54 53 49 49 47 47 43 40 42 47 43 41 36 34 34 21 16 19 38 41 32 24 23 21 19
59 61 64 63 61 63 64 62 59 58 55 55 52 50 50 50 49 49 48 44 47 45 47 46 44 40 39 39 38 39 37 34 31 22 22 21 26 28 24 25 22 23 21
51 53 54 54 53 51 52 50 49 47 47 46 43 41 40 41 41 41 42 43 45 45 44 41 40 37 36 34 37 36 33 31 30 21 24 23 25 26 26 30 25 23 25
43 43 44 45 42 43 45 43 44 42 44 44 40 39 37 35 35 34 37 40 42 42 37 37 38 37 37 36 35 36 32 29 27 21 26 26 21 25 27 33 28 25 29
46 45 48 48 48 45 45 45 44 44 45 43 42 42 41 39 36 33 34 33 32 37 39 36 42 40 43 33 36 33 30 25 24 27 27 22 25 22 26 32 29 28 29
51 51 51 51 52 50 50 48 47 47 47 47 46 45 42 40 36 32 32 32 33 37 38 36 42 43 43 38 35 34 30 21 25 23 20 25 24 23 22 30 34 33 27
55 55 53 55 54 55 53 51 50 50 48 51 48 46 46 44 41 40 35 31 34 40 38 38 39 43 42 39 35 32 29 22 24 20 18 22 29 22 21 28 35 41 38
62 61 57 57 58 58 57 56 54 53 50 50 51 48 46 44 44 43 39 35 33 40 41 42 40 43 41 41 35 31 28 21 26 24 23 25 23 24 20 22 34 41 45
66 67 64 61 61 61 59 58 57 56 55 52 51 49 49 46 45 46 43 40 37 36 38 38 43 45 42 44 41 34 33 23 22 23 24 22 24 24 20 19 27 36 38
71 70 69 65 66 65 66 64 60 61 58 52 51 52 53 50 47 43 41 41 41 39 41 42 43 45 47 46 45 38 35 33 20 25 26 23 24 24 22 21 20 31 36
77 76 75 73 72 72 68 68 66 61 62 55 55 54 55 54 50 49 47 41 38 43 42 41 42 42 43 43 42 41 38 36 25 31 28 27 26 27 24 23 23 20 34
77 80 80 78 78 74 74 73 69 65 64 60 58 55 56 60 55 50 51 46 40 40 47 44 43 42 40 38 37 40 40 38 30 28 31 31 28 29 26 25 23 22 20
83 81 83 85 84 79 78 79 79 71 66 63 62 62 63 63 63 60 57 54 48 42 44 50 44 43 40 38 38 41 39 34 29 32 32 35 35 34 28 27 25 24 20
95 95 93 89 87 85 79 78 77 73 71 64 64 65 66 66 66 65 61 59 56 53 47 49 49 44 43 42 41 43 40 38 34 33 32 34 36 36 31 29 28 25 25
106 102 101 99 92 90 85 83 81 77 71 67 67 72 74 75 70 69 57 61 60 58 56 44 52 49 47 43 45 46 45 40 36 35 35 36 34 36 33 34 30 27 23
105 105 104 106 103 94 93 89 89 84 80 74 65 68 76 74 70 65 60 62 63 64 58 48 50 54 49 48 45 43 39 39 40 39 35 32 31 29 31 34 34 30 28
106 105 106 103 103 104 101 96 94 92 81 77 74 76 75 70 64 67 65 69 66 62 56 41 41 53 52 48 44 42 41 42 41 40 42 38 34 37 36 32 33 30 30
102 102 105 106 104 108 106 100 94 93 84 75 72 75 74 67 68 70 68 68 53 53 48 52 44 46 55 48 47 45 44 43 38 41 41 38 38 39 35 32 33 30 29
93 95 99 104 107 107 113 103 92 90 82 69 70 70 69 71 71 75 71 67 65 61 43 46 47 44 52 51 48 49 44 39 37 36 37 33 35 34 33 29 35 38 34
74 79 84 90 101 109 111 103 94 88 83 63 68 67 64 69 72 75 79 72 66 63 47 44 53 44 48 49 50 50 46 38 32 33 38 39 34 31 36 40 39 38 34
60 66 72 76 86 97 106 97 92 88 83 54 65 68 53 61 70 68 80 81 74 58 59 53 54 49 44 47 49 50 47 41 38 32 30 34 34 41 39 41 42 40 37
Wind_Direction
277 272 275 275 276 278 279 281 283 289 286 285 286 287 289 290 292 291 292 293 295 295 297 297 298 299 302 303 304 304 304 304 304 305 304 302 300 300 289 287 285 281 276
273 273 273 274 276 278 278 281 283 286 285 285 284 285 288 290 291 291 291 292 293 296 297 299 300 301 302 303 303 304 303 304 307 309 314 314 305 293 293 290 274 278 280
270 272 274 275 276 278 280 281 285 284 283 284 283 283 284 287 289 290 291 292 294 295 297 300 299 301 303 303 303 303 304 306 305 319 330 321 311 304 299 288 274 269 279
275 275 275 275 276 278 279 280 281 282 283 282 282 282 283 284 285 287 290 291 292 294 296 297 300 302 302 302 303 301 303 303 306 326 343 310 299 305 288 266 243 219 252
274 276 277 277 277 278 278 279 278 280 282 281 280 280 281 282 284 285 287 288 291 292 294 297 297 298 299 298 300 298 302 304 308 326 305 291 277 290 280 260 238 207 177
274 272 273 276 275 275 279 277 279 279 281 280 282 279 279 280 281 283 283 285 285 288 290 293 294 295 295 294 295 298 302 303 311 324 308 267 266 269 264 238 230 209 192
273 272 273 274 276 276 277 278 279 281 281 281 283 281 281 279 278 278 279 277 280 282 287 289 291 292 291 290 292 294 301 303 306 312 302 286 272 265 246 228 233 225 202
273 274 273 274 274 276 279 281 283 283 282 282 283 282 281 280 276 275 277 278 276 278 283 284 286 288 290 290 291 295 298 302 301 306 294 297 279 264 248 235 239 230 211
275 279 278 280 283 283 284 284 286 287 287 287 286 287 283 285 277 274 271 276 276 279 275 285 284 285 288 289 292 293 297 301 299 301 298 301 290 265 249 235 234 234 222
276 278 280 280 281 286 289 289 288 288 285 286 289 290 287 287 282 275 271 271 271 273 274 280 283 284 288 288 290 291 296 296 294 294 302 292 302 290 250 234 234 235 223
278 279 280 281 282 282 284 285 284 283 284 286 287 286 286 284 280 278 275 269 259 267 266 277 282 282 285 284 283 290 289 294 293 290 301 300 300 291 263 246 239 230 234
273 276 278 278 277 279 281 282 283 282 283 283 285 283 285 284 281 278 276 268 263 260 268 265 280 281 284 280 285 288 281 291 284 278 284 278 292 294 288 252 241 237 237
272 271 272 275 276 277 280 279 278 278 280 281 280 281 281 284 282 281 279 272 263 265 260 259 268 276 284 285 286 282 276 278 289 277 274 283 286 297 290 266 246 242 244
267 268 269 271 273 274 275 275 276 276 276 278 277 280 280 283 278 279 279 276 267 261 264 268 267 272 278 287 288 286 276 265 289 274 268 276 289 291 300 296 259 249 255
262 264 268 270 271 271 274 273 272 274 275 276 274 276 279 283 278 276 272 284 270 263 263 261 265 269 273 277 282 283 272 266 274 279 270 271 281 284 293 303 293 255 250
265 266 267 267 267 270 271 271 269 271 273 271 270 272 275 276 281 276 278 281 279 268 264 267 262 266 272 275 274 279 277 274 259 284 268 271 278 282 285 297 299 290 255
266 266 265 264 263 264 267 269 269 270 270 271 269 271 270 276 281 275 276 279 283 285 269 264 270 269 269 271 271 275 278 278 260 276 270 274 278 280 280 291 293 299 299
267 265 265 267 266 263 266 271 272 270 268 266 268 271 270 276 278 278 273 275 278 285 278 264 263 268 268 267 270 275 277 275 263 277 266 275 279 282 275 282 289 293 304
268 269 267 264 263 264 263 261 263 266 262 259 263 268 270 274 278 277 273 276 280 286 292 269 260 260 265 266 271 273 281 278 266 269 267 269 277 277 276 275 285 286 298
268 266 265 264 261 260 256 256 259 262 261 254 257 269 268 270 272 272 268 273 278 286 287 286 263 256 257 263 264 269 275 271 261 267 269 268 268 273 278 280 280 284 291
264 263 262 263 263 255 255 254 254 258 254 255 258 260 263 265 267 268 271 273 277 283 290 295 268 255 253 259 265 270 266 263 263 262 265 268 262 265 270 276 276 283 286
255 256 258 256 256 255 251 251 251 253 258 258 251 253 259 264 263 267 271 272 274 280 292 287 271 260 253 256 263 267 265 266 268 270 264 262 264 273 279 271 270 277 282
258 255 254 254 253 253 253 249 248 251 254 254 253 256 257 259 261 264 265 268 275 283 290 286 275 264 254 252 259 261 262 268 271 269 263 265 272 274 272 273 275 279 283
261 258 252 250 251 252 254 251 245 247 252 252 249 257 257 257 262 266 267 272 280 289 284 282 280 267 251 249 255 259 265 267 270 268 264 265 265 265 271 268 270 276 278
263 259 253 247 245 247 251 251 246 242 247 246 251 253 260 257 262 264 269 273 274 276 277 277 283 270 252 247 255 257 261 263 260 275 263 272 262 261 252 266 273 274 282
264 259 253 248 244 242 245 249 247 242 244 239 240 245 267 287 278 276 275 269 263 267 272 275 277 273 256 245 249 254 259 253 256 254 247 245 248 255 261 264 275 275 277
Height
10849 10849 10849 10848 10848 10849 10850 10851 10851 10851 10850 10848 10847 10846 10845 10843 10842 10841 10839 10838 10836 10833 10832 10831 10831 10828 10826 10825 10824 10822 10819 10821 10822 10819 10815 10809 10805 10802 10798 10795 10793 10789 10785
10843 10836 10838 10840 10840 10839 10839 10841 10842 10842 10841 10841 10840 10838 10836 10834 10832 10832 10831 10830 10828 10825 10822 10821 10820 10819 10818 10817 10815 10814 10811 10811 10809 10808 10804 10798 10795 10793 10791 10792 10789 10785 10782
10831 10826 10829 10829 10830 10831 10830 10831 10830 10830 10833 10832 10831 10829 10827 10827 10825 10823 10822 10821 10820 10818 10816 10813 10812 10810 10808 10808 10807 10805 10804 10802 10800 10805 10799 10791 10787 10788 10786 10783 10784 10783 10779
10823 10812 10818 10819 10820 10821 10820 10820 10822 10822 10820 10822 10822 10820 10819 10818 10817 10815 10814 10813 10811 10810 10809 10808 10805 10802 10800 10800 10799 10799 10799 10796 10793 10801 10796 10785 10781 10780 10781 10778 10775 10775 10774
10810 10804 10804 10806 10807 10807 10807 10808 10810 10811 10809 10809 10810 10810 10809 10809 10808 10809 10806 10806 10805 10803 10801 10801 10800 10797 10794 10792 10792 10793 10794 10790 10788 10795 10792 10781 10778 10777 10776 10773 10771 10769 10768
10796 10799 10791 10793 10793 10794 10796 10796 10799 10799 10798 10799 10798 10801 10800 10800 10799 10800 10800 10799 10799 10796 10794 10793 10793 10793 10789 10786 10786 10786 10788 10787 10785 10789 10785 10782 10775 10775 10772 10770 10768 10766 10762
10788 10785 10785 10784 10784 10785 10787 10787 10787 10789 10789 10789 10789 10790 10791 10791 10790 10791 10792 10791 10792 10791 10789 10787 10786 10785 10784 10782 10780 10780 10782 10782 10783 10784 10780 10777 10772 10769 10768 10767 10763 10762 10760
10777 10776 10776 10776 10776 10776 10776 10777 10777 10780 10780 10781 10781 10781 10782 10782 10782 10783 10784 10784 10784 10784 10782 10781 10779 10779 10777 10777 10775 10774 10777 10775 10776 10779 10776 10773 10769 10767 10767 10763 10759 10758 10758
10765 10767 10766 10766 10766 10768 10768 10769 10769 10770 10771 10772 10774 10774 10774 10774 10774 10774 10775 10776 10776 10777 10776 10774 10773 10772 10772 10771 10769 10769 10770 10770 10770 10771 10773 10769 10767 10764 10762 10759 10755 10754 10755
10757 10759 10756 10758 10758 10759 10761 10762 10762 10762 10763 10764 10765 10766 10767 10767 10767 10768 10767 10768 10769 10769 10769 10769 10767 10766 10766 10766 10764 10763 10765 10764 10764 10765 10764 10760 10759 10757 10756 10754 10752 10750 10751
10747 10747 10747 10748 10747 10750 10752 10753 10754 10754 10755 10756 10757 10758 10759 10759 10760 10760 10760 10760 10761 10762 10762 10763 10761 10760 10759 10759 10759 10758 10759 10759 10759 10759 10756 10753 10752 10751 10749 10749 10747 10745 10746
10735 10736 10737 10735 10737 10738 10741 10742 10744 10745 10747 10748 10749 10750 10751 10751 10752 10752 10753 10752 10753 10753 10754 10755 10754 10753 10752 10751 10752 10752 10753 10753 10753 10752 10751 10744 10747 10746 10744 10741 10741 10741 10740
10723 10723 10726 10724 10726 10727 10729 10730 10733 10735 10737 10740 10740 10742 10743 10743 10743 10744 10745 10745 10744 10745 10746 10746 10747 10746 10746 10745 10745 10745 10746 10750 10745 10747 10743 10743 10742 10741 10739 10736 10735 10735 10734
10708 10708 10710 10714 10714 10715 10718 10721 10722 10724 10726 10729 10731 10733 10735 10736 10736 10736 10736 10737 10737 10735 10737 10739 10739 10739 10739 10738 10738 10738 10738 10741 10741 10740 10739 10738 10738 10736 10734 10732 10730 10730 10729
10693 10694 10695 10701 10700 10703 10704 10708 10711 10712 10715 10718 10721 10724 10725 10727 10728 10728 10729 10728 10729 10728 10729 10730 10731 10731 10731 10732 10730 10731 10731 10732 10734 10731 10733 10733 10732 10731 10729 10728 10725 10723 10724
10674 10678 10679 10683 10686 10688 10693 10692 10697 10701 10702 10706 10710 10713 10715 10719 10720 10721 10721 10721 10720 10722 10722 10722 10722 10721 10722 10722 10723 10724 10724 10725 10728 10724 10725 10727 10727 10726 10724 10723 10721 10718 10718
10659 10659 10660 10664 10665 10674 10677 10680 10683 10690 10691 10695 10698 10703 10704 10708 10711 10711 10712 10713 10714 10713 10714 10714 10715 10714 10714 10714 10715 10716 10717 10717 10718 10720 10717 10720 10721 10720 10719 10719 10717 10713 10712
10638 10638 10640 10643 10647 10656 10663 10667 10670 10677 10681 10685 10684 10691 10695 10698 10701 10701 10701 10702 10704 10704 10704 10705 10707 10708 10707 10706 10707 10708 10709 10709 10710 10710 10711 10711 10711 10713 10714 10712 10711 10709 10707
10621 10618 10622 10625 10628 10635 10646 10652 10653 10660 10664 10669 10670 10675 10682 10684 10689 10689 10689 10689 10692 10693 10694 10694 10697 10698 10699 10699 10700 10700 10701 10701 10702 10702 10703 10704 10704 10704 10706 10706 10705 10704 10702
10589 10600 10596 10599 10609 10613 10623 10627 10636 10641 10643 10651 10662 10662 10665 10670 10673 10676 10678 10679 10679 10682 10683 10685 10687 10687 10687 10691 10692 10691 10694 10693 10694 10694 10695 10695 10696 10697 10697 10696 10698 10698 10696
10559 10568 10575 10571 10583 10593 10596 10607 10610 10621 10629 10640 10647 10650 10650 10656 10660 10661 10665 10669 10670 10668 10669 10674 10675 10676 10676 10680 10683 10684 10684 10685 10685 10687 10687 10687 10686 10688 10690 10690 10689 10690 10689
10534 10533 10539 10548 10550 10555 10563 10580 10589 10600 10616 10621 10630 10634 10636 10644 10649 10651 10654 10654 10658 10659 10659 10660 10664 10666 10669 10670 10672 10674 10676 10675 10677 10678 10678 10679 10680 10679 10680 10681 10681 10682 10681
10500 10510 10514 10515 10523 10522 10531 10551 10572 10579 10594 10607 10619 10623 10629 10635 10636 10636 10642 10644 10646 10651 10653 10652 10651 10653 10658 10661 10662 10662 10664 10666 10669 10667 10669 10672 10673 10672 10672 10672 10672 10672 10673
10472 10477 10484 10488 10491 10498 10494 10521 10549 10560 10576 10592 10605 10611 10618 10623 10627 10626 10631 10635 10639 10642 10647 10645 10641 10640 10644 10650 10654 10652 10656 10658 10659 10661 10659 10661 10663 10663 10665 10665 10664 10664 10665
10440 10442 10447 10458 10460 10467 10468 10493 10523 10541 10558 10582 10593 10601 10603 10607 10609 10614 10612 10617 10622 10625 10637 10636 10636 10632 10631 10638 10645 10645 10646 10649 10649 10651 10653 10650 10652 10654 10654 10654 10655 10655 10655
10413 10412 10417 10426 10432 10439 10445 10467 10495 10526 10541 10564 10571 10586 10597 10596 10597 10599 10595 10596 10602 10605 10616 10623 10627 10626 10623 10626 10633 10636 10637 10637 10636 10637 10640 10640 10641 10640 10643 10646 10645 10645 10646